Location: Cerbedi�res
(48.2182°N, 1.4849°W)
Time: 00:33:50
(UTC+00:00)

Daily predictions for brighter satellites

Satellite Brightness Start Highest point End
(mag) Time Altitude Azimuth Time Altitude Azimuth Time Altitude Azimuth
CENTAUR R/B 4.0 03:29:56 33° E 03:29:56 33° E 03:34:36 10° NE
Cosmos 1943 Rocket 3.8 03:48:57 32° ENE 03:48:57 32° ENE 03:52:28 10° NE
Cosmos 2278 Rocket 4.3 04:19:52 16° N 04:19:52 16° N 04:21:09 10° NNE
USA 238 DEB 3.8 04:17:39 62° SSE 04:18:07 64° SE 04:24:54 10° NE
USA 238 3.8 04:17:43 62° SSE 04:18:14 64° SE 04:25:00 10° NE
Tsikada Rocket 4.4 04:14:21 10° S 04:20:25 59° E 04:26:36 10° NNE
USA 215 3.4 04:21:21 10° ESE 04:27:47 64° NNE 04:28:33 59° N
Meteor 2-3 Rocket 3.9 04:32:53 51° SSE 04:34:16 71° E 04:40:00 10° NNE
Cosmos 1812 4.4 04:43:26 30° ESE 04:43:26 30° ESE 04:45:50 10° SSE
SL-8 R/B 4.1 04:45:55 60° ESE 04:45:55 60° ESE 04:49:50 10° ESE
Meteor 1-26 Rocket 4.2 04:48:36 63° NNW 04:49:38 86° WSW 04:55:24 10° S
Gblst 52 Del rocket 4.2 04:52:05 73° W 04:52:44 84° NNW 04:59:31 10° ENE
SKYMED 2 4.2 04:50:13 10° SSE 04:54:26 55° ENE 04:55:17 46° NNE
Cosmos 2344 3.5 04:54:02 54° W 04:55:25 63° NW 05:03:25 10° NE
SL-19 R/B 4.2 04:50:33 10° SSE 04:56:08 89° E 04:58:03 44° NNW
Cosmos 921 Rocket 3.5 05:03:15 50° S 05:03:15 50° S 05:06:37 10° SSE
Meteor 2-13 Rocket 4.4 04:57:36 10° S 05:03:43 81° E 05:09:49 10° NNE
Meteor 1-31 Rocket 4.0 05:00:36 10° NNE 05:04:18 41° E 05:08:01 10° S
Cosmos 2369 Rocket 2.4 04:59:57 10° SSW 05:05:29 71° ESE 05:11:05 10° NNE
Kosmos-917 4.4 05:07:19 50° NNE 05:07:19 50° NNE 05:11:06 10° NE
CZ-4C R/B 4.3 05:05:25 10° SE 05:08:16 33° ENE 05:08:20 33° ENE
BREEZE-M DEB (TANK) 2.9 05:11:22 70° ENE 05:11:22 70° ENE 05:16:48 10° ENE
H-2A R/B 4.3 05:09:25 10° ESE 05:12:50 23° ENE 05:16:19 10° N
H-2A R/B 2.8 05:09:23 10° NNE 05:13:06 72° ESE 05:16:51 10° S
Okean 3 Rocket 4.4 05:09:48 10° S 05:14:12 54° E 05:18:39 10° NNE
DNEPR-1 R/B 3.8 05:14:05 56° NW 05:15:10 87° NE 05:20:46 10° SE
Cosmos 1151 Rocket 3.0 05:15:08 47° N 05:16:23 87° E 05:20:46 10° S
Cosmos 1486 Rocket 4.1 05:11:13 10° SSW 05:16:30 78° ESE 05:21:48 10° NNE
Cosmos 1862 3.8 05:13:25 10° S 05:17:17 59° E 05:21:12 10° NNE
CENTAUR R/B 2.7 05:17:08 45° W 05:18:45 56° NW 05:25:59 10° NE
SJ-12 3.8 05:19:01 10° NNE 05:23:11 87° WNW 05:27:19 10° SSW
Cosmos 1656 Rocket 3.8 05:17:49 10° SSW 05:23:11 70° ESE 05:28:38 10° NNE
Cosmos 1766 Rocket 3.6 05:19:36 10° S 05:23:55 74° E 05:28:16 10° NNE
Cosmos 2142 Rocket 4.4 05:23:35 10° N 05:29:57 81° W 05:36:20 10° S
Cosmos 1943 Rocket 2.6 05:30:31 39° WNW 05:30:59 40° NW 05:36:19 10° NNE
CZ-2C R/B 2.6 05:25:49 10° S 05:31:17 69° WSW 05:35:48 15° NNW
Cosmos 1328 Rocket 3.4 05:29:16 20° N 05:32:15 90° NNE 05:36:36 10° S
NOSS 3-2 (A) 3.9 05:31:40 36° WNW 05:33:02 41° NNW 05:39:25 10° NE
MOS 1-B Rocket 4.1 05:31:34 10° S 05:37:35 47° W 05:41:05 22° NW
Envisat 2.9 05:32:48 10° N 05:37:53 71° WNW 05:42:56 10° SSW
Cosmos 2279 Rocket 3.9 05:32:20 10° NNW 05:38:32 75° W 05:44:41 10° S
SL-27 R/B 3.5 05:36:27 21° N 05:38:32 44° ENE 05:41:57 10° SE
NOSS 3-2 (C) 3.5 05:38:28 31° W 05:41:03 53° NW 05:47:36 10° NE
COSMO-SKYMED 1 2.7 05:38:19 10° S 05:42:31 49° W 05:43:53 36° NW
Iridium 2 3.9 05:40:12 10° SSW 05:47:33 10° N 05:43:24 45° WSW
Cosmos 2098 Rocket 3.1 05:42:33 10° SSW 05:46:29 55° WNW 05:51:30 10° N
Cosmos 968 Rocket 3.8 05:44:59 31° W 05:46:35 39° WNW 05:51:25 10° N
ATLAS 3B R/B 4.4 05:41:47 10° S 05:47:27 33° ESE 05:53:20 10° NE
Nadezhda 4 Rocket 4.5 05:44:04 10° S 05:50:07 62° E 05:56:16 10° NNE
Cosmos 2297 4.5 05:51:08 28° WNW 05:52:22 31° NW 05:57:25 10° NNE
Meteor 1-27 Rocket 4.0 05:47:50 10° N 05:53:30 71° ENE 05:59:12 10° SSE
NOAA 11 4.4 05:48:25 10° NNE 05:53:55 77° ESE 05:59:23 10° S
Cosmos 1634 Rocket 4.4 05:49:04 10° NNW 05:54:47 37° W 06:00:25 10° SSW
BREEZE M DEB (TANK) 2.3 05:53:54 36° WNW 05:55:06 70° N 05:57:21 10° E
Cosmos 1408 Rocket 3.6 05:54:01 10° S 05:58:18 81° E 06:02:38 10° NNE
Cosmos 2278 Rocket 4.1 06:01:44 11° NNW 06:01:44 11° NNW 06:03:26 10° N
CBERS 1 LM4 rocket 4.5 05:58:19 10° N 06:03:01 52° WNW 06:07:51 10° SW
DMSP B5D1-3 4.5 05:59:48 10° SSE 06:04:57 84° WSW 06:10:10 10° NNW
Cosmos 1743 Rocket 4.4 06:02:15 10° S 06:06:31 53° E 06:10:47 10° NNE
Cosmos 1340 Rocket 3.7 06:04:26 10° S 06:08:16 52° E 06:12:11 10° NNE
Meteor 2-6 Rocket 4.5 06:04:17 10° NNW 06:09:21 41° W 06:14:21 10° SSW
USA 238 DEB 4.1 06:05:08 19° W 06:09:28 40° NNW 06:16:02 10° NE
USA 238 4.1 06:05:13 19° W 06:09:34 41° NNW 06:16:08 10° NE
Cosmos 1354 Rocket 3.9 06:04:33 10° SSW 06:09:50 78° WNW 06:15:11 10° NNE
ADEOS 3.5 06:05:04 10° NNE 06:10:17 73° WNW 06:15:29 10° SSW
USA 215 3.5 06:04:31 10° SSE 06:10:54 54° SW 06:15:53 17° WNW
FALCON 9 DEB 3.7 06:09:43 28° WNW 06:10:56 41° NNW 06:14:11 10° ENE
Cosmos 1515 Rocket 3.5 06:09:28 10° NNW 06:13:47 61° W 06:18:04 10° S
Meteor 2-15 4.4 06:08:35 10° NNW 06:14:32 59° W 06:20:27 10° S
Cosmos 1812 4.4 06:18:32 16° WSW 06:18:32 16° WSW 06:20:09 10° SW
Cosmos 1939 Rocket 3.2 06:14:12 10° NNE 06:18:09 67° ESE 06:22:00 10° S
ATLAS 5 CENTAUR R/B 2.5 06:15:06 10° SSW 06:18:46 45° ESE 06:22:52 10° NE
SJ 16-02 1.6 06:16:47 10° S 06:21:08 70° ESE 06:25:31 10° NNE
FALCON 9 DEB 3.8 06:21:03 22° NW 06:22:11 29° N 06:24:48 10° ENE
CZ-2C R/B 2.9 06:17:21 10° NNE 06:22:13 79° WNW 06:27:16 10° SSW
Meteor PRIRODA 3.6 06:22:14 10° N 06:25:49 60° WNW 06:29:23 10° SSW
CZ-4B R/B 2.0 06:22:49 10° SSE 06:26:05 57° ENE 06:29:19 10° N
SL-8 R/B 4.5 06:23:53 16° W 06:27:19 40° SSW 06:31:47 10° SE
FALCON 9 DEB 3.9 06:26:07 19° NW 06:27:29 29° N 06:30:03 10° ENE
Cosmos 1515 3.8 06:24:10 10° N 06:27:59 79° E 06:31:47 10° SSE
FALCON 9 DEB 3.8 06:27:29 19° NW 06:28:56 29° N 06:31:30 10° ENE
Meteor 2-19 Rocket 4.4 06:24:05 10° SSW 06:30:05 64° WNW 06:36:07 10° N
FAST Rocket 3.9 06:29:41 10° SSW 06:32:16 77° W 06:35:28 10° N
Cosmos 1500 Rocket 3.5 06:30:33 10° SSW 06:34:59 75° W 06:39:30 10° N
Cosmos 1538 Rocket 4.0 06:31:53 10° NNW 06:37:11 89° WSW 06:42:22 10° SSE
Meteor 1-31 Rocket 4.1 06:35:35 10° NNW 06:38:25 20° WNW 06:41:16 10° WSW
Okean 1 3.8 06:36:35 10° N 06:40:31 61° ENE 06:44:25 10° SSE
H-2A R/B 3.1 06:37:57 10° NNE 06:42:43 48° E 06:47:28 10° S
Cosmos 2297 Rocket 3.1 06:38:38 10° NNW 06:44:07 48° NE 06:49:35 10° SE
Cosmos 1707 Rocket 4.4 06:41:14 10° N 06:45:35 53° ENE 06:49:57 10° SSE
Sich 1 3.4 06:41:43 10° S 06:45:58 68° E 06:50:13 10° NNE
Cosmos 1805 Rocket 3.6 06:42:25 10° S 06:46:49 87° E 06:51:12 10° N
FALCON 9 DEB 3.9 06:46:03 12° WNW 06:48:18 29° N 06:50:54 10° ENE
H-2A R/B 2.5 06:44:29 10° S 06:48:32 42° W 06:52:43 10° NNW
Cosmos 2369 Rocket 3.2 06:45:30 10° W 06:50:03 25° NW 06:54:40 10° N
Okean O Rocket 3.6 06:47:59 10° NNE 06:52:01 33° E 06:55:59 10° SSE
COSMOS 2487 2.4 06:50:44 10° NNW 06:54:03 58° WSW 06:57:20 10° S
USA 32 4.1 06:49:07 10° NNW 06:54:16 57° W 06:59:23 10° SSW
FengYun 1-2 T 4.2 06:50:08 10° N 06:55:35 66° WNW 07:01:00 10° SSW
CZ-2D R/B 3.3 06:51:51 10° NNE 06:55:40 83° ESE 06:59:26 10° SSW
Cosmos 2026 Rocket 4.1 06:50:04 10° S 06:56:26 87° W 07:02:45 10° N
Cosmos 1680 Rocket 4.3 06:53:39 10° NNW 06:58:51 51° ENE 07:03:59 10° SE
Cosmos 2195 Rocket 4.4 06:53:50 10° SSW 06:59:56 72° W 07:06:04 10° N
Cosmos 1777 Rocket 4.1 06:56:21 10° SW 07:01:26 52° WNW 07:06:36 10° NNE
Cosmos 1553 Rocket 4.2 06:56:58 10° N 07:03:03 74° E 07:09:09 10° SSE
